Weather History for Lexington, KY

Change the Weather History Date:

Tuesday, October 14, 2014

  Actual Average Record
Temperature  
Mean Temperature 65 °F 58 °F  
Max Temperature 72 °F 68 °F 86 °F (1897)
Min Temperature 58 °F 47 °F 29 °F (1979)
Degree Days  
Heating Degree Days 0 8  
Month to date heating degree days 61 91  
Since 1 July heating degree days 91 145  
Cooling Degree Days 0 1  
Month to date cooling degree days 25 18  
Year to date cooling degree days 1272 1181  
Growing Degree Days 15 (Base 50)    
Moisture  
Dew Point 59 °F    
Average Humidity 75    
Maximum Humidity 90    
Minimum Humidity 59    
Precipitation  
Precipitation 1.18 in 0.10 in 2.13 in (1919)
Month to date precipitation 3.34 1.36  
Year to date precipitation 47.42 35.94  
Snow  
Snow 0.00 in 0.00 in 0.00 in ()
Month to date snowfall 0.0 0.0  
Since 1 July snowfall 0.0 0.0  
Since 1 September snowfall 0.0 0.0  
Snow Depth 0.00 in    
Sea Level Pressure  
Sea Level Pressure 29.70 in    
Wind  
Wind Speed 13 mph (SSW)    
Max Wind Speed 24 mph    
Max Gust Speed 33 mph    
Visibility 7 miles    
Events Rain    
T = Trace of Precipitation, MM = Missing Value Source: NWS Daily Summary

Daily Weather History Graph

Daily Weather History Graph

Search for Another Location

Airport:

Trip Planner

Search our weather history database for the weather conditions in past years. The results will help you decide how hot, cold, wet, or windy it might be!

Date:

Astronomy

Oct. 14, 2014 Rise Set
Actual Time 7:46 AM EDT 7:02 PM EDT
Civil Twilight 7:19 AM EDT 7:28 PM EDT
Nautical Twilight 6:49 AM EDT 7:59 PM EDT
Astronomical Twilight 6:18 AM EDT 8:29 PM EDT
Moon No Moon Rise 1:43 PM EDT (10/14)
Length of Visible Light 12h 09m
Length of Day
11h 16m
Waning Gibbous, 61% of the Moon is Illuminated
Oct 14
Waning Gibbous
Oct 15
Last Quarter
Oct 23
New
Oct 30
First Quarter
Nov 6
Full

Hourly Weather History & Observations

Time (EDT) Temp. Dew Point Humidity Pressure Visibility Wind Dir Wind Speed Gust Speed Precip Events Conditions
12:54 AM 72.0 °F 57.9 °F 61% 29.77 in 10.0 mi SSE 12.7 mph 19.6 mph N/A   Mostly Cloudy
1:52 AM 71.6 °F 57.2 °F 60% 29.83 in 10.0 mi WSW 11.5 mph - N/A   Overcast
1:54 AM 72.0 °F 57.9 °F 61% 29.80 in 10.0 mi WSW 12.7 mph - N/A   Overcast
2:01 AM 71.1 °F 59.0 °F 66% 29.83 in 10.0 mi West 16.1 mph 21.9 mph N/A   Overcast
2:54 AM 66.0 °F 62.1 °F 87% 29.81 in 5.0 mi SW 9.2 mph 18.4 mph 0.01 in Rain Light Rain
3:27 AM 66.0 °F 62.1 °F 87% 29.83 in 2.5 mi SSW 8.1 mph - 0.10 in Rain Heavy Rain
3:40 AM 66.0 °F 62.1 °F 87% 29.81 in 5.0 mi SSW 6.9 mph - 0.17 in Rain Rain
3:54 AM 66.0 °F 62.1 °F 87% 29.79 in 2.5 mi SSE 9.2 mph - 0.30 in Rain Heavy Rain
4:03 AM 66.0 °F 62.1 °F 87% 29.81 in 4.0 mi SSE 13.8 mph - 0.05 in Rain Heavy Rain
4:54 AM 66.2 °F 60.8 °F 83% 29.77 in 10.0 mi SSE 10.4 mph - N/A Rain Light Rain
5:54 AM 66.0 °F 62.1 °F 87% 29.74 in 9.0 mi SE 15.0 mph - 0.01 in Rain Light Rain
6:54 AM 66.0 °F 62.1 °F 87% 29.74 in 6.0 mi SSE 15.0 mph 23.0 mph 0.07 in Rain Rain
7:31 AM 66.0 °F 62.1 °F 87% 29.70 in 10.0 mi SE 18.4 mph 27.6 mph 0.08 in Rain Light Rain
7:54 AM 66.9 °F 61.0 °F 81% 29.67 in 10.0 mi SSE 18.4 mph 28.8 mph 0.09 in Rain Light Rain
8:54 AM 66.9 °F 62.1 °F 84% 29.63 in 10.0 mi SE 20.7 mph 31.1 mph 0.02 in   Scattered Clouds
9:54 AM 69.1 °F 62.1 °F 78% 29.62 in 10.0 mi SE 16.1 mph 27.6 mph N/A   Mostly Cloudy
10:01 AM 69.8 °F 62.6 °F 78% 29.64 in 10.0 mi SE 16.1 mph 24.2 mph N/A   Mostly Cloudy
10:40 AM 69.1 °F 63.0 °F 81% 29.65 in 4.0 mi SSE 20.7 mph 28.8 mph 0.01 in Rain Light Rain
10:54 AM 69.1 °F 63.0 °F 81% 29.62 in 3.0 mi SSE 16.1 mph 25.3 mph 0.05 in Rain Heavy Rain
11:40 AM 70.0 °F 63.0 °F 78% 29.65 in 2.5 mi SW 15.0 mph 25.3 mph 0.04 in Rain Light Rain
11:42 AM 68.0 °F 63.0 °F 84% 29.65 in 1.8 mi WSW 15.0 mph 25.3 mph 0.06 in Rain Heavy Rain
11:54 AM 64.0 °F 60.1 °F 87% 29.65 in 1.5 mi WSW 20.7 mph 29.9 mph 0.17 in Rain Heavy Rain
12:10 PM 64.0 °F 59.0 °F 84% 29.67 in 2.0 mi WSW 15.0 mph 25.3 mph 0.07 in Rain Rain
12:14 PM 64.0 °F 59.0 °F 84% 29.68 in 3.0 mi SW 15.0 mph 25.3 mph 0.07 in Rain Light Rain
12:24 PM 63.0 °F 59.0 °F 87% 29.68 in 4.0 mi SW 15.0 mph - 0.08 in Rain Light Rain
12:31 PM 63.0 °F 59.0 °F 87% 29.68 in 4.0 mi SW 15.0 mph 24.2 mph 0.09 in Rain Light Rain
12:54 PM 63.0 °F 59.0 °F 87% 29.66 in 4.0 mi SW 17.3 mph 23.0 mph 0.11 in Rain Light Rain
12:57 PM 63.0 °F 57.9 °F 84% 29.68 in 2.0 mi SW 13.8 mph 23.0 mph 0.01 in Rain Heavy Rain
1:13 PM 64.0 °F 59.0 °F 84% 29.68 in 5.0 mi SW 12.7 mph 19.6 mph 0.05 in Rain Light Rain
1:17 PM 64.0 °F 60.1 °F 87% 29.67 in 2.0 mi SW 13.8 mph - 0.05 in Rain Light Rain
1:28 PM 63.0 °F 57.9 °F 84% 29.67 in 10.0 mi SW 16.1 mph 23.0 mph 0.06 in   Overcast
1:39 PM 63.0 °F 57.9 °F 84% 29.66 in 3.0 mi WSW 12.7 mph 18.4 mph 0.09 in Rain Rain
1:54 PM 63.0 °F 59.0 °F 87% 29.65 in 2.0 mi SW 10.4 mph - 0.09 in Rain Light Rain
2:02 PM 63.0 °F 59.0 °F 87% 29.67 in 1.0 mi SSW 9.2 mph - 0.12 in Rain Heavy Rain
2:12 PM 64.0 °F 59.0 °F 84% 29.66 in 3.0 mi SW 15.0 mph - 0.16 in Rain Rain
2:24 PM 64.0 °F 59.0 °F 84% 29.66 in 6.0 mi SSW 13.8 mph 20.7 mph 0.17 in Rain Light Rain
2:51 PM 64.4 °F 59.0 °F 83% 29.66 in 10.0 mi SSW 10.4 mph - 0.17 in   Overcast
2:54 PM 64.9 °F 59.0 °F 81% 29.64 in 10.0 mi SSW 10.4 mph - 0.17 in   Overcast
3:07 PM 64.0 °F 59.0 °F 84% 29.67 in 10.0 mi SSW 12.7 mph - N/A   Overcast
3:54 PM 66.0 °F 57.9 °F 75% 29.65 in 10.0 mi SSW 8.1 mph - 0.00 in   Overcast
4:54 PM 70.0 °F 55.0 °F 59% 29.64 in 10.0 mi SW 16.1 mph 29.9 mph N/A   Mostly Cloudy
5:54 PM 68.0 °F 54.0 °F 61% 29.65 in 10.0 mi SW 15.0 mph - N/A   Mostly Cloudy
6:54 PM 64.9 °F 54.0 °F 68% 29.70 in 10.0 mi SW 11.5 mph 19.6 mph N/A   Mostly Cloudy
7:54 PM 60.1 °F 53.1 °F 78% 29.72 in 10.0 mi SW 6.9 mph - N/A   Clear
8:54 PM 62.1 °F 51.1 °F 67% 29.73 in 10.0 mi SW 15.0 mph 21.9 mph N/A   Overcast
9:54 PM 60.1 °F 52.0 °F 75% 29.76 in 10.0 mi SSW 12.7 mph - N/A   Overcast
10:54 PM 59.0 °F 52.0 °F 78% 29.77 in 10.0 mi South 8.1 mph - N/A   Scattered Clouds
11:54 PM 59.0 °F 52.0 °F 78% 29.77 in 10.0 mi South 10.4 mph - N/A   Overcast